Location: Colorado Springs
(38.8340°N, 104.8210°W)
Time: 03:42:10
(UTC-06:00)

Envisat - Pass Details

Date: 12 October 2017
Orbit: 764 x 766 km, 98.2° (Epoch: 16 October)

Event Time Altitude Azimuth Distance (km) Brightness Sun altitude
Exits shadow 21:14:11 37° 317° (NW) 1,188 4.3 -33.5°
Drops below altitude 10° 21:17:23 10° 338° (NNW) 2,308 5.9 -34.0°
Sets 21:19:45 0° 343° (NNW) 3,238 6.7 -34.5°
